User: anonymous   Login
Location: Unspecified
(0.0000°N, 0.0000°E)
Time: 09:21:30
(UTC+00:00)
Language:

DEMETER - Orbit

View from above orbital plane
View from above orbital plane
View from above satellite
View from above satellite

Ground track
Ground track

The orbit data is extracted from the following two-line orbital elements,

1 28368U 04025C   18018.48797541 +.00000127 +00000-0 +26361-4 0  9993
2 28368 097.7297 012.5233 0000936 047.1960 312.9334 14.74321953727348
Epoch (UTC): 18 January 2018 11:42:41
Eccentricity: 0.0000936
inclination: 97.7297°
perigee height: 646 km
apogee height: 648 km
right ascension of ascending node: 12.5233°
argument of perigee: 47.1960°
revolutions per day: 14.74321953
mean anomaly at epoch: 312.9334°
orbit number at epoch: 72734

The dashed part of the orbit path shows where the satellite is in the earth's shadow,  

DLR